Weather History for Marshfield, WI

Change the Weather History Date:

Thursday, January 9, 2014

  Actual Average Record
Temperature  
Mean Temperature 0 °F -  
Max Temperature 17 °F 18 °F 46 °F (2002)
Min Temperature -18 °F 1 °F -28 °F (1977)
Degree Days  
Heating Degree Days 66    
Moisture  
Dew Point -3 °F    
Average Humidity 73    
Maximum Humidity 92    
Minimum Humidity 54    
Precipitation  
Precipitation 0.00 in - - ()
Sea Level Pressure  
Sea Level Pressure 30.29 in    
Wind  
Wind Speed 5 mph (SSE)    
Max Wind Speed 13 mph    
Max Gust Speed -    
Visibility 8 miles    
Events      
Averages and records for this station are not official NWS values.
T = Trace of Precipitation, MM = Missing Value Source: NWS Daily Summary

Daily Weather History Graph

Daily Weather History Graph

Search for Another Location

Airport:

Trip Planner

Search our weather history database for the weather conditions in past years. The results will help you decide how hot, cold, wet, or windy it might be!

Date:

Astronomy

Jan. 09, 2014 Rise Set
Actual Time 7:36 AM CST 4:39 PM CST
Civil Twilight 7:03 AM CST 5:12 PM CST
Nautical Twilight 6:27 AM CST 5:48 PM CST
Astronomical Twilight 5:52 AM CST 6:24 PM CST
Moon 12:11 PM CST (1/9) 1:38 AM CST (1/9)
Length of Visible Light 10h 08m
Length of Day
9h 02m
Waxing Gibbous, 66% of the Moon is Illuminated
Jan 9
Waxing Gibbous
Jan 15
Full
Jan 23
Last Quarter
Jan 30
New
Feb 6
First Quarter

Hourly Weather History & Observations

Time (CST) Temp. Windchill Dew Point Humidity Pressure Visibility Wind Dir Wind Speed Gust Speed Precip Events Conditions
12:54 AM -16.1 °F - -20.0 °F 82% 30.52 in 9.0 mi Calm Calm - N/A   Clear
1:54 AM -17.0 °F - -20.9 °F 82% 30.53 in 6.0 mi Calm Calm - N/A   Clear
2:54 AM -14.1 °F - -20.9 °F 71% 30.51 in 6.0 mi Calm Calm - N/A   Haze
3:54 AM -18.0 °F -28.5 °F -24.0 °F 74% 30.51 in 7.0 mi South 3.5 mph - N/A   Clear
4:54 AM -16.1 °F - -22.0 °F 74% 30.51 in 8.0 mi Calm Calm - N/A   Clear
5:54 AM -14.1 °F -23.9 °F -20.9 °F 71% 30.49 in 8.0 mi SSE 3.5 mph - N/A   Clear
6:54 AM -15.0 °F -27.4 °F -20.9 °F 75% 30.48 in 7.0 mi ESE 4.6 mph - N/A   Clear
7:54 AM -13.0 °F -22.7 °F -17.0 °F 82% 30.46 in 6.0 mi ESE 3.5 mph - N/A   Clear
8:54 AM -9.9 °F - -13.0 °F 86% 30.45 in 7.0 mi Calm Calm - N/A   Clear
9:54 AM -2.9 °F -15.0 °F -9.0 °F 75% 30.43 in 10.0 mi South 5.8 mph - N/A   Clear
10:54 AM 1.9 °F -13.8 °F -7.1 °F 66% 30.40 in 10.0 mi South 10.4 mph - N/A   Clear
11:54 AM 5.0 °F -6.9 °F -5.1 °F 63% 30.36 in 10.0 mi South 6.9 mph - N/A   Overcast
12:54 PM 9.0 °F -5.1 °F -2.9 °F 59% 30.31 in 10.0 mi SSE 10.4 mph - N/A   Overcast
1:54 PM 12.9 °F 0.7 °F -0.9 °F 54% 30.30 in 10.0 mi South 9.2 mph - N/A   Clear
2:45 PM 15.1 °F 3.3 °F 1.9 °F 56% 30.17 in 10.0 mi South 9.2 mph - N/A   Mostly Cloudy
2:54 PM 15.1 °F 5.2 °F 1.9 °F 56% 30.27 in 10.0 mi South 6.9 mph - N/A   Overcast
3:54 PM 16.0 °F 2.3 °F 6.1 °F 65% 30.26 in 10.0 mi South 12.7 mph - N/A   Overcast
5:51 PM 12.2 °F 1.7 °F 3.2 °F 67% 30.11 in 10.0 mi SSE 6.9 mph - N/A   Mostly Cloudy
5:54 PM 14.0 °F 2.0 °F 3.0 °F 62% 30.22 in 10.0 mi SSE 9.2 mph - N/A   Mostly Cloudy
6:54 PM 15.1 °F 4.2 °F 3.9 °F 61% 30.20 in 10.0 mi SSE 8.1 mph - N/A   Overcast
7:44 PM 15.1 °F 2.5 °F 5.0 °F 64% 30.08 in 9.0 mi SSE 10.4 mph - N/A   Overcast
7:54 PM 15.1 °F 4.2 °F 6.1 °F 68% 30.18 in 8.0 mi SSE 8.1 mph - N/A   Overcast
8:54 PM 15.1 °F 2.5 °F 7.0 °F 70% 30.17 in 8.0 mi SSE 10.4 mph - N/A   Overcast
9:54 PM 15.1 °F 3.3 °F 10.9 °F 84% 30.15 in 6.0 mi SSE 9.2 mph - N/A   Overcast
10:33 PM 16.0 °F 2.9 °F 12.9 °F 88% 30.04 in 3.0 mi South 11.5 mph - N/A   Overcast
10:46 PM 16.0 °F 5.3 °F 14.0 °F 92% 30.03 in 2.5 mi South 8.1 mph - N/A   Overcast
10:54 PM 16.0 °F 5.3 °F 14.0 °F 92% 30.12 in 2.5 mi South 8.1 mph - N/A   Overcast
11:24 PM 17.1 °F 5.0 °F 14.0 °F 88% 30.02 in 3.0 mi South 10.4 mph - N/A   Overcast
11:54 PM 17.1 °F 5.8 °F 14.0 °F 88% 30.09 in 3.0 mi South 9.2 mph - N/A   Overcast